RH
21 21 23 24 23 24 25 41 50 49 38 35 29 25 28 34 31 59 56 50 50 47 48 52 48 44 36 36 36 39 47 54 53 54 41 40 38 36 37 42 44 41 42 41 40
23 23 23 26 27 29 30 34 37 36 28 26 25 25 27 36 37 55 57 50 44 43 47 51 50 47 40 37 39 40 43 48 51 56 59 46 38 34 32 36 36 37 39 35 36
24 25 26 28 25 25 29 30 28 25 23 25 26 26 31 31 36 49 60 49 43 36 42 47 52 53 51 48 47 48 51 48 47 50 54 49 42 33 28 33 30 32 32 25 27
25 30 39 64 32 25 27 28 30 35 41 50 45 40 35 34 40 44 68 50 43 38 38 47 53 52 52 51 51 46 47 33 39 39 41 39 37 32 31 32 29 23 25 26 28
25 39 55 51 44 29 30 33 34 36 35 51 35 38 36 39 46 46 69 64 44 42 40 38 47 50 50 51 50 36 31 28 31 32 32 31 33 31 39 35 29 26 21 26 31
41 29 36 35 40 45 43 43 55 56 54 57 58 57 49 60 56 50 69 63 51 39 39 40 41 44 40 42 42 33 29 28 31 31 31 34 38 40 36 36 33 30 27 26 26
54 33 32 33 42 58 72 72 76 73 63 68 66 68 71 72 55 60 75 62 52 44 42 40 39 38 40 40 40 33 31 31 32 31 32 33 33 33 29 30 29 31 32 29 26
59 60 35 36 50 58 69 69 64 69 78 92 90 75 78 70 63 78 77 64 54 51 47 46 45 42 41 40 36 35 33 34 29 31 27 30 31 26 25 26 26 29 30 33 33
53 61 52 45 54 65 79 83 73 73 87 91 94 82 69 67 73 82 84 69 60 52 49 49 50 47 48 46 41 38 37 34 31 32 30 29 26 28 24 21 21 23 25 28 30
95 80 81 90 80 88 89 82 81 86 92 81 78 64 70 68 82 92 82 72 65 58 53 53 55 54 55 51 47 40 36 36 40 29 34 24 25 31 30 22 21 23 26 27 27
92 94 88 94 93 85 86 82 81 91 83 74 65 64 75 77 88 88 85 76 71 64 60 61 58 59 61 52 47 44 42 40 43 42 29 29 26 29 38 31 28 31 29 28 28
96 92 96 94 93 93 86 86 100 91 73 70 76 83 86 90 90 90 80 74 76 70 67 64 60 70 59 55 51 48 45 46 42 40 33 33 29 32 31 36 36 35 35 33 31
95 97 96 94 94 87 94 96 96 85 76 78 85 87 88 84 90 88 78 78 78 74 74 72 66 68 63 58 55 52 46 45 37 40 41 35 35 30 31 36 40 39 37 36 35
97 98 96 97 86 84 97 97 95 96 82 63 88 76 83 83 67 96 90 79 76 76 77 66 67 74 68 62 58 52 52 50 48 46 44 37 36 33 29 40 47 47 45 43 42
97 97 93 100 92 89 100 95 97 98 87 74 65 76 81 81 74 94 95 81 79 88 74 64 68 67 63 66 61 58 57 58 54 51 46 45 45 43 38 41 49 49 49 48 48
97 96 98 95 95 100 95 97 98 97 74 66 66 70 66 71 74 88 96 90 92 84 73 75 74 72 68 68 64 60 59 60 57 59 48 48 47 50 40 36 43 46 44 41 40
98 89 96 98 96 99 96 97 97 79 64 59 67 77 67 67 73 84 92 95 93 83 80 82 74 72 69 70 71 69 69 73 65 59 55 43 41 48 33 41 44 43 45 45 46
97 98 96 97 98 97 97 96 87 54 64 62 66 72 75 72 77 84 88 91 87 83 84 77 74 70 68 66 66 64 68 71 70 72 60 38 43 42 39 42 43 46 47 47 50
97 97 96 97 97 97 97 89 58 60 78 86 80 73 77 76 80 82 87 91 90 91 93 88 80 74 69 68 68 63 67 76 73 70 64 51 51 47 46 43 45 49 53 53 57
98 97 94 98 98 98 96 78 88 75 77 72 78 81 87 89 90 93 93 82 88 94 93 89 84 80 77 78 73 77 76 80 76 72 67 54 59 67 48 45 49 52 59 63 65
98 97 93 98 98 97 90 68 82 97 82 76 89 86 87 85 86 91 90 86 92 96 95 93 96 84 86 78 79 78 78 85 92 75 69 58 59 69 62 56 60 63 64 61 54
99 97 96 98 97 95 85 84 92 96 94 80 78 87 88 94 94 92 93 88 90 99 96 96 96 92 88 80 88 91 87 86 90 86 87 81 49 72 73 73 73 70 61 60 56
98 97 98 98 94 87 90 88 92 94 92 94 87 76 80 94 92 93 88 94 96 98 97 97 94 96 90 84 86 91 92 99 100 100 90 99 61 84 80 80 75 63 53 43 36
98 98 98 97 94 97 96 91 90 96 99 94 93 91 86 89 94 91 88 87 95 98 100 98 94 95 87 92 78 81 89 96 100 99 98 97 73 100 95 76 61 48 41 31 24
97 98 96 94 84 86 92 95 96 96 96 99 94 94 100 100 97 93 85 86 94 97 100 98 93 79 84 86 83 79 71 82 100 100 98 97 91 82 70 55 46 38 30 22 14
98 99 92 99 100 99 97 91 96 93 94 89 98 97 98 96 97 95 97 98 97 97 97 98 92 82 86 87 84 81 83 92 100 100 95 98 88 73 59 45 37 29 20 12 9
94 95 98 99 98 97 86 95 95 96 97 98 99 98 98 97 98 97 97 98 97 93 93 94 96 99 92 85 93 82 84 100 100 98 98 97 78 61 55 38 22 14 11 8 8
Wind_Speed
44 41 39 37 37 35 36 36 35 35 34 34 36 35 32 33 31 26 23 24 23 24 24 24 24 24 24 22 23 23 19 18 21 25 28 25 23 23 23 22 23 24 23 24 23
46 44 42 39 43 41 42 39 39 40 36 36 37 39 37 34 34 30 23 24 24 23 24 25 25 25 25 25 25 25 23 24 25 26 25 27 27 27 27 26 26 28 26 27 25
49 46 43 41 44 43 43 40 40 38 36 37 39 40 40 40 40 33 25 23 26 25 25 27 27 27 27 26 25 26 23 24 24 25 24 25 28 30 28 28 30 27 27 27 28
53 50 46 47 50 47 46 44 40 41 44 45 46 45 41 43 42 38 28 24 26 26 24 26 28 28 27 27 25 25 21 21 21 24 24 26 26 30 30 29 31 26 27 31 32
57 54 53 50 53 49 49 45 41 43 44 46 46 48 43 41 45 38 30 28 25 26 25 26 26 27 27 27 26 22 21 20 21 23 26 26 26 28 26 30 29 29 27 32 32
61 58 56 50 52 56 54 50 52 54 55 54 52 49 45 47 44 40 33 30 27 25 25 26 26 26 25 26 25 21 21 21 22 25 26 26 25 26 30 29 29 29 31 32 31
63 58 56 55 56 58 59 61 58 60 57 57 56 54 51 47 39 37 34 31 29 27 27 28 25 25 23 26 24 23 22 24 23 27 27 27 25 27 31 29 28 28 29 31 32
68 66 58 59 56 56 58 64 66 61 58 60 64 54 48 37 37 36 35 33 31 30 30 28 27 26 24 26 26 26 24 24 25 29 27 27 23 27 31 29 29 28 28 29 33
68 67 63 59 57 56 60 64 63 60 62 55 51 38 34 32 34 36 36 34 34 32 32 31 30 29 27 27 28 28 28 27 29 28 29 29 24 27 31 28 29 30 31 31 31
81 74 65 62 61 65 64 67 64 57 57 40 39 37 34 31 33 36 34 34 35 34 33 32 31 31 29 29 29 34 31 28 27 32 32 31 27 25 33 31 30 30 33 34 35
59 80 79 69 70 78 80 68 56 50 44 38 39 37 33 33 34 32 34 36 36 35 34 34 34 28 31 32 33 33 32 30 27 33 33 31 31 28 31 36 36 36 35 34 36
62 61 72 77 76 68 64 53 52 51 44 38 37 37 31 31 32 31 33 35 35 35 35 33 31 31 34 33 33 34 34 30 29 31 34 31 31 33 32 33 37 37 35 36 37
65 60 63 68 63 54 49 45 45 43 40 35 35 34 33 35 33 31 34 34 34 35 33 33 32 32 33 34 33 34 33 32 33 31 33 37 32 37 32 32 34 36 38 39 41
48 53 58 60 53 48 47 45 40 38 40 38 35 38 35 35 37 32 35 33 32 31 33 35 32 30 33 32 34 35 33 35 34 35 33 35 38 41 40 37 38 40 41 43 44
59 56 55 49 48 45 45 43 40 38 43 42 40 38 36 38 34 33 35 35 29 31 33 34 31 31 31 30 33 34 34 37 37 38 40 40 42 45 49 49 46 45 46 48 49
69 61 59 48 52 47 52 44 47 45 46 45 43 33 33 35 35 33 36 34 29 32 32 33 30 30 32 32 35 37 39 39 41 43 47 45 46 47 53 55 53 51 48 50 51
65 67 59 55 49 52 52 53 52 49 47 45 42 34 30 29 31 32 34 32 33 35 32 32 32 32 32 33 34 37 40 42 46 48 47 49 49 49 54 54 55 56 57 56 56
67 74 73 58 58 54 53 49 50 49 45 46 42 42 37 33 30 31 32 32 33 35 32 33 33 34 33 35 38 41 43 45 47 46 50 51 50 55 57 58 59 59 61 63 64
60 63 67 60 56 59 57 59 50 49 45 44 43 42 40 36 34 37 39 40 40 40 40 37 40 37 38 38 40 44 45 45 47 50 51 53 56 59 60 61 62 63 64 67 69
66 63 61 59 58 62 64 54 53 48 52 50 43 44 44 42 40 41 42 43 44 42 40 41 43 43 44 42 43 43 45 46 50 51 53 55 57 62 65 65 66 65 67 70 71
75 71 68 57 59 64 64 58 54 51 54 45 46 50 47 45 43 45 48 48 46 46 46 47 48 50 50 50 47 45 48 50 52 54 55 56 57 61 66 67 68 70 71 69 69
87 78 70 69 68 66 55 54 61 56 52 51 48 45 51 50 50 49 50 50 48 48 48 48 47 49 50 51 47 48 49 50 52 56 59 61 59 65 66 66 66 67 69 67 67
93 79 74 72 74 66 62 51 54 51 52 51 53 53 49 50 50 53 55 50 46 46 48 44 44 42 44 46 47 47 47 48 52 57 59 64 59 64 63 62 66 64 65 68 70
93 87 77 71 70 65 62 62 53 55 48 52 53 53 47 43 48 45 40 45 47 48 48 46 45 45 44 47 48 46 46 49 53 58 55 61 53 56 59 62 64 67 69 72 74
102 94 82 79 67 60 60 63 66 55 49 55 54 49 45 44 46 45 39 42 44 43 43 46 47 46 48 49 50 51 52 53 56 57 57 52 58 57 61 64 66 71 75 77 81
89 80 78 70 66 65 56 51 55 54 62 50 50 44 46 48 44 40 38 40 42 41 42 45 49 52 53 54 54 54 53 56 57 56 57 58 60 60 66 69 69 76 79 84 88
93 81 70 79 69 76 62 52 55 52 56 51 45 44 43 44 42 39 40 42 44 46 47 48 51 54 55 56 55 57 55 57 55 58 57 58 63 67 68 71 74 80 83 86 86
Wind_Direction
238 238 238 243 247 250 252 258 266 273 277 280 280 284 291 298 303 292 283 272 265 260 257 254 253 251 249 249 251 255 260 262 259 254 261 267 267 266 266 265 261 257 254 254 252
238 241 240 243 251 249 252 253 263 269 269 274 278 282 288 293 297 292 280 272 267 260 258 257 255 255 252 251 253 260 265 267 264 260 254 259 261 262 262 264 263 258 255 250 246
238 240 243 249 252 251 255 257 261 263 266 273 276 280 285 285 291 289 277 266 264 258 256 255 256 254 255 256 259 263 270 270 267 261 252 250 258 262 262 266 260 265 261 258 252
239 240 243 248 251 252 255 257 258 266 269 274 275 278 280 285 288 290 271 262 260 261 255 253 255 257 260 261 262 266 266 261 259 256 254 252 251 260 267 272 275 267 260 262 267
243 244 245 243 248 250 252 253 256 261 262 266 271 277 276 280 285 283 268 256 256 256 256 256 254 257 260 263 262 258 259 260 258 255 256 254 255 259 265 268 268 271 268 268 271
244 245 245 245 245 249 252 252 259 259 262 267 269 277 278 282 279 279 264 254 248 250 252 253 254 255 259 262 258 253 256 258 260 260 253 255 260 269 266 270 272 274 275 276 279
242 243 242 245 248 250 253 259 268 267 260 270 272 272 280 277 268 269 261 248 244 243 247 254 255 255 255 257 259 257 256 257 257 256 255 258 262 267 268 270 273 277 280 283 282
241 241 244 245 245 252 258 261 265 268 271 276 274 274 274 263 263 265 254 247 241 242 245 249 255 256 254 254 253 253 250 256 252 256 257 259 262 264 267 269 272 275 278 281 281
238 238 245 245 247 251 254 262 268 268 273 276 268 262 261 259 263 262 250 243 242 239 243 248 251 253 252 252 251 251 251 250 259 259 263 262 259 266 267 266 269 274 275 276 274
244 235 241 247 248 251 254 259 265 269 271 256 259 265 266 261 259 258 246 245 244 242 243 249 253 255 254 253 253 250 249 252 254 260 258 260 256 253 265 262 260 265 270 271 270
245 240 234 243 248 250 254 261 264 270 257 257 258 263 266 257 257 247 246 246 243 244 246 248 251 257 255 252 253 256 256 255 255 261 257 260 262 258 260 266 263 263 263 266 268
245 243 243 240 248 251 252 259 260 257 254 259 263 266 261 250 250 246 243 245 243 246 247 250 253 253 255 256 255 257 259 260 255 256 262 262 263 268 262 267 271 272 271 271 270
239 232 244 245 250 248 248 252 250 254 257 257 260 259 254 246 244 238 240 242 242 246 250 252 254 255 257 258 260 260 260 262 262 262 268 267 271 266 269 271 270 270 272 272 273
230 235 240 238 242 242 243 245 247 248 255 255 255 251 245 247 244 235 237 236 241 247 249 251 258 255 255 255 258 260 261 264 266 267 267 267 271 275 268 271 272 274 273 272 271
233 235 241 242 238 242 244 240 242 249 256 260 250 249 247 243 249 238 234 236 239 245 251 255 253 255 256 258 259 263 262 264 267 268 268 268 270 274 275 274 275 276 274 271 270
230 234 236 237 227 235 239 236 242 241 241 248 251 241 242 241 243 237 235 240 238 243 248 254 255 257 259 259 261 263 266 266 267 268 268 272 274 276 277 279 283 282 278 276 276
229 235 233 230 236 233 230 229 234 236 241 244 247 241 237 239 236 235 239 240 241 245 246 250 255 256 260 262 265 269 270 269 269 269 273 274 275 277 275 281 281 281 281 281 278
225 230 235 236 233 236 231 231 231 235 238 244 245 244 238 237 237 235 236 237 241 243 245 248 252 258 263 267 268 267 266 267 270 271 272 272 273 275 278 279 280 281 280 279 280
217 225 229 228 229 231 234 233 236 240 235 243 246 248 241 237 237 241 242 241 242 248 252 256 260 263 264 264 264 265 265 265 267 266 269 273 275 276 276 277 279 280 280 280 280
218 226 225 221 236 238 237 236 238 235 236 241 242 246 249 246 244 244 245 247 249 250 254 259 262 264 266 266 266 266 266 265 265 268 270 272 275 276 277 281 281 280 279 279 279
215 223 225 226 231 228 233 242 232 236 231 236 238 244 247 249 254 251 252 252 254 253 255 258 261 263 266 268 268 267 266 268 268 268 272 275 274 273 276 280 282 281 280 279 278
219 222 227 230 227 230 230 233 235 237 232 239 242 245 247 248 256 258 256 256 259 259 259 261 262 264 265 266 264 262 265 268 269 275 276 276 273 274 279 281 281 277 277 279 279
214 218 225 223 229 231 229 232 234 233 235 239 242 244 248 250 256 259 259 257 261 262 260 258 257 262 263 264 265 268 271 275 277 277 278 277 279 280 279 276 274 277 280 281 283
213 217 221 224 226 228 233 239 246 234 233 237 242 245 246 251 253 255 256 258 258 258 258 253 253 261 268 268 268 269 273 273 274 274 277 275 277 272 272 274 279 280 281 284 287
215 218 220 223 224 230 235 235 233 238 236 238 240 243 250 251 244 245 254 260 255 255 253 250 253 258 264 267 266 266 266 270 271 272 272 273 274 276 279 280 283 285 287 289 289
220 217 216 224 228 230 231 232 236 245 246 241 243 246 249 240 248 256 255 249 247 245 249 248 254 259 263 266 265 267 270 271 274 272 269 274 279 278 279 283 287 287 288 288 289
217 219 221 225 234 230 239 237 243 241 240 236 240 248 242 247 249 248 245 244 244 245 250 255 256 259 264 266 269 268 268 269 266 267 274 276 279 282 283 285 287 288 288 289 293